Location: Kellogg
(38.0159°N, 90.0546°W)
Time: 16:09:12
(UTC+00:00)

Courier 1B - Pass Details

Date: 09 September 2024
Orbit: 962 x 1208 km, 28.3° (Epoch: 07 October)

Event Time Altitude Azimuth Distance (km) Brightness Sun altitude
Rises 21:51:53 0° 230° (SW) 4,008 11.7 27.4°
Reaches altitude 10° 21:55:03 10° 220° (SW) 3,078 11.1 26.8°
Maximum altitude 22:01:29 30° 163° (SSE) 2,006 9.3 25.6°
Drops below altitude 10° 22:08:03 10° 106° (ESE) 3,142 9.7 24.3°
Sets 22:11:18 0° 96° (E) 4,104 10.2 23.7°
